Tracking 34403 objects as of 13-Jun-2026
HD Live streaming from Space Station
objects crossing your sky now

SL-8 R/B

Track SL-8 R/B now!
10-day predictions


NORAD ID: 4370
Int'l Code: 1970-028B
Perigee: 679.9 km
Apogee: 698.9 km
Inclination: 74.0 °
Period: 98.4 minutes
Semi major axis: 7060 km
RCS: 4.6155 m2 (large)
Launch date: April 11, 1970
Source: Commonwealth of Independent States (former USSR) (CIS)
Launch site: PLESETSK MISSILE AND SPACE COMPLEX (PKMTR)

Note: This is a ROCKET BODY
Your satellite tracking list
Your tracking list is empty




NASA's NSSDC Master Catalog

Two Line Element Set (TLE):
1  4370U 70028B   26163.79014891  .00000493  00000-0  10120-3 0  9991
2  4370  74.0392 298.8298 0013483  98.9867 261.2827 14.63393780490828
Source of the keplerian elements: AFSPC